Home > Weather > Andorra La Vella > Past weeks

Flag for Andorra Past Weather in Andorra La Vella, Andorra — Yesterday and Last 2 Weeks

Now
61 °F

Clear.


Feels Like: 61 °F
Forecast: 46 / 79 °F
Wind: 7 mph from West

Location: Carcassonne Airport

Current Time: Jun 27, 2016 at 2:38:22 AM

Latest Report: Jun 27, 2016 at 2:00 AM


Visibility: 10 mi

Pressure: 30.21 "Hg (26.74 "Hg at 1031m altitude)

Humidity: 77%

Dew Point: 54 °F

Location of Andorra La VellaLocation

Past Weather in Andorra La Vella — Graph

°F

Andorra La Vella Temperature Yesterday

Maximum temperature yesterday: 75 °F (at 2:30 PM)
Minimum temperature yesterday: 61 °F (at 7:00 AM)
Average temperature yesterday: 68 °F

High & Low Weather Summary for the Past Weeks

 TemperatureHumidityPressure
High91 °F (Jun 21, 5:00 PM)100% (Jun 15, 7:30 AM)30.36 "Hg (Jun 15, 7:30 AM)
Low48 °F (Jun 17, 6:00 AM)30% (Jun 21, 5:00 PM)29.53 "Hg (Jun 15, 6:30 PM)
Average67 °F68%30.03 "Hg
* Reported Jun 12 1:00 AM — Jun 27 1:30 AM, Andorra La Vella, Weather by CustomWeather, © 2016

Note: Actual official high and low records may vary slightly from our data, if they occured in-between our weather recording intervals... More about our weather records

Advertising

Andorra La Vella Weather History for the Previous 24 Hours

Scroll right to see more
 ConditionsComfort  
Time TempWeatherWind HumidityBarometerVisibility
1:30 AM
Mon, Jun 27
61 °FPassing clouds.8 mph77%30.21 "HgN/A
1:00 AM61 °FClear.8 mph77%30.21 "Hg10 mi
12:30 AM63 °FClear.7 mph73%30.21 "Hg10 mi
12:00 AM63 °FClear.7 mph73%30.21 "Hg10 mi
11:30 PM
Sun, Jun 26
64 °FClear.9 mph68%30.21 "Hg10 mi
11:00 PM64 °FClear.8 mph68%30.21 "Hg10 mi
10:30 PM64 °FPassing clouds.8 mph68%30.18 "HgN/A
10:00 PM66 °FPassing clouds.10 mph64%30.18 "HgN/A
9:30 PM68 °FPassing clouds.10 mph64%30.15 "HgN/A
9:00 PM70 °FPassing clouds.12 mph60%30.15 "HgN/A
8:30 PM72 °FPassing clouds.16 mph50%30.15 "HgN/A
8:00 PM72 °FScattered clouds.15 mph50%30.12 "HgN/A
7:30 PM73 °FPartly sunny.18 mph47%30.12 "HgN/A
7:00 PM73 °FPartly sunny.14 mph47%30.12 "HgN/A
6:30 PM75 °FScattered clouds.15 mph44%30.12 "HgN/A
6:00 PM75 °FScattered clouds.15 mph44%30.12 "HgN/A
5:30 PM75 °FPartly sunny.16 mph47%30.12 "HgN/A
5:00 PM73 °FPartly sunny.15 mph47%30.12 "HgN/A
4:30 PM75 °FPartly sunny.16 mph44%30.12 "HgN/A
4:00 PM73 °FPartly sunny.16 mph44%30.12 "HgN/A
3:30 PM75 °FPartly sunny.17 mph44%30.12 "HgN/A
3:00 PM75 °FPartly sunny.16 mph44%30.12 "HgN/A
2:30 PM75 °FScattered clouds.15 mph44%30.12 "HgN/A
2:00 PM73 °FPartly sunny.16 mph47%30.15 "HgN/A
1:30 PM73 °FScattered clouds.17 mph50%30.15 "HgN/A
1:00 PM72 °FPartly sunny.15 mph50%30.15 "HgN/A
12:30 PM72 °FPartly sunny.16 mph53%30.15 "HgN/A
12:00 PM70 °FPassing clouds.14 mph57%30.15 "HgN/A
11:30 AM68 °FPassing clouds.14 mph60%30.15 "HgN/A
11:00 AM66 °FPassing clouds.14 mph64%30.15 "HgN/A
10:30 AM64 °FOvercast.12 mph68%30.15 "HgN/A
10:00 AM64 °FOvercast.13 mph68%30.15 "HgN/A
9:30 AM63 °FOvercast.14 mph73%30.15 "HgN/A
9:00 AM63 °FOvercast.14 mph73%30.15 "HgN/A
8:30 AM63 °FMostly cloudy.10 mph73%30.15 "HgN/A
8:00 AM63 °FOvercast.12 mph73%30.15 "HgN/A
7:30 AM61 °FMostly cloudy.12 mph72%30.15 "HgN/A
7:00 AM61 °FMostly cloudy.13 mph72%30.15 "HgN/A
6:30 AM63 °FOvercast.12 mph68%30.15 "HgN/A
6:00 AM63 °FOvercast.12 mph83%30.12 "HgN/A
5:30 AM63 °FOvercast.12 mph83%30.12 "HgN/A
5:00 AM63 °FMostly cloudy.12 mph83%30.12 "HgN/A
4:30 AM63 °FMostly cloudy.12 mph83%30.12 "HgN/A
4:00 AM63 °FOvercast.13 mph83%30.12 "HgN/A
3:30 AM63 °FOvercast.13 mph83%30.12 "HgN/A
3:00 AM64 °FMostly cloudy.12 mph78%30.12 "HgN/A
2:30 AM64 °FMostly cloudy.13 mph78%30.12 "HgN/A
2:00 AM64 °FOvercast.10 mph78%30.12 "HgN/A
Weather by CustomWeather, © 2016

See weather overviewHow to use our weather pages